{"data":{"norad_id":51772,"epoch":"2026-09-19T11:25:03.884160Z","epoch_age_seconds":140080,"freshness":"FRESH","line1":"1 51772U 22017E   26262.47573940  .00000335  00000+0  21069-4 0  9993","line2":"2 51772  53.1603 176.4774 0001196  91.9071 268.2068 15.34385566252021","mean_motion":15.34385566,"eccentricity":0.0001196,"inclination_deg":53.1603,"raan_deg":176.4774,"arg_perigee_deg":91.9071,"mean_anomaly_deg":268.2068,"bstar":2.1069e-5,"rev_number":25202,"period_min":93.848640909335,"perigee_km":461.92797180953,"apogee_km":463.56431105696,"semimajor_km":6840.8831414332,"source":"CELESTRAK","updated_at":"2026-09-20T09:00:39.936520Z"}}